Stündliche Wetter Bolshie Lopatki

Heute, 29 Juli, Donnerstag

Zeit Temperatur Niederschläge Wind Luftdruck Luftfeuchtigkeit
00:00 +17°C° 0 mm 2 m/S 738 mmHg 98%
01:00 +17°C° 0 mm 2 m/S 738 mmHg 98%
02:00 +17°C° 0 mm 2 m/S 738 mmHg 98%
03:00 +17°C° 0 mm 2 m/S 738 mmHg 98%
04:00 +18°C° 0 mm 1 m/S 737 mmHg 98%
05:00 +19°C° 0 mm 1 m/S 737 mmHg 97%
06:00 +20°C° 0 mm 1 m/S 737 mmHg 92%
07:00 +21°C° 0 mm 2 m/S 737 mmHg 87%
08:00 +23°C° 0 mm 2 m/S 738 mmHg 81%
09:00 +25°C° 0.2 mm 2 m/S 738 mmHg 70%
10:00 +27°C° 0.2 mm 2 m/S 738 mmHg 60%
11:00 +28°C° 0.2 mm 2 m/S 738 mmHg 49%
12:00 +29°C° 0 mm 3 m/S 737 mmHg 47%
13:00 +29°C° 0 mm 3 m/S 737 mmHg 46%
14:00 +29°C° 0 mm 3 m/S 737 mmHg 44%
15:00 +29°C° 0 mm 2 m/S 737 mmHg 47%
16:00 +29°C° 0 mm 2 m/S 737 mmHg 50%
17:00 +28°C° 0 mm 1 m/S 736 mmHg 54%
18:00 +26°C° 0 mm 1 m/S 736 mmHg 60%
19:00 +24°C° 0 mm 1 m/S 736 mmHg 67%
20:00 +23°C° 0 mm 1 m/S 736 mmHg 73%
21:00 +21°C° 0.1 mm 2 m/S 736 mmHg 77%
22:00 +20°C° 0.1 mm 2 m/S 736 mmHg 80%
23:00 +20°C° 0.1 mm 2 m/S 736 mmHg 84%

Morgen, 30 Juli, Freitag

Zeit Temperatur Niederschläge Wind Luftdruck Luftfeuchtigkeit
00:00 +19°C° 1.1 mm 2 m/S 736 mmHg 89%
01:00 +20°C° 1.1 mm 1 m/S 736 mmHg 93%
02:00 +19°C° 1.1 mm 1 m/S 736 mmHg 98%
03:00 +19°C° 0.9 mm 1 m/S 735 mmHg 98%
04:00 +19°C° 0.9 mm 1 m/S 735 mmHg 98%
05:00 +19°C° 0.9 mm 1 m/S 735 mmHg 98%
06:00 +19°C° 0.5 mm 1 m/S 735 mmHg 98%
07:00 +20°C° 0.5 mm 1 m/S 735 mmHg 97%
08:00 +20°C° 0.5 mm 1 m/S 735 mmHg 97%
09:00 +20°C° 0.2 mm 2 m/S 736 mmHg 91%
10:00 +21°C° 0.2 mm 2 m/S 736 mmHg 86%
11:00 +22°C° 0.2 mm 3 m/S 736 mmHg 81%
12:00 +24°C° 0.3 mm 3 m/S 736 mmHg 73%
13:00 +25°C° 0.3 mm 3 m/S 736 mmHg 65%
14:00 +26°C° 0.3 mm 4 m/S 736 mmHg 57%
15:00 +25°C° 0 mm 4 m/S 736 mmHg 57%
16:00 +25°C° 0 mm 3 m/S 735 mmHg 57%
17:00 +24°C° 0 mm 3 m/S 735 mmHg 57%
18:00 +22°C° 0 mm 3 m/S 735 mmHg 62%
19:00 +21°C° 0 mm 3 m/S 736 mmHg 67%
20:00 +19°C° 0 mm 2 m/S 736 mmHg 72%
21:00 +18°C° 0 mm 2 m/S 736 mmHg 75%
22:00 +17°C° 0 mm 2 m/S 736 mmHg 78%
23:00 +16°C° 0 mm 2 m/S 736 mmHg 81%

übermorgen, 31 Juli, Samstag

Zeit Temperatur Niederschläge Wind Luftdruck Luftfeuchtigkeit
00:00 +16°C° 0 mm 2 m/S 736 mmHg 80%
01:00 +14°C° 0 mm 3 m/S 736 mmHg 80%
02:00 +14°C° 0 mm 3 m/S 736 mmHg 79%
03:00 +14°C° 0 mm 3 m/S 736 mmHg 80%
04:00 +14°C° 0 mm 3 m/S 736 mmHg 81%
05:00 +14°C° 0 mm 3 m/S 736 mmHg 83%
06:00 +17°C° 0 mm 4 m/S 736 mmHg 74%
07:00 +19°C° 0 mm 4 m/S 736 mmHg 66%
08:00 +21°C° 0 mm 5 m/S 736 mmHg 57%
09:00 +22°C° 0 mm 5 m/S 736 mmHg 52%
10:00 +24°C° 0 mm 6 m/S 736 mmHg 47%
11:00 +26°C° 0 mm 6 m/S 736 mmHg 42%
12:00 +26°C° 0 mm 6 m/S 736 mmHg 41%
13:00 +27°C° 0 mm 6 m/S 737 mmHg 40%
14:00 +27°C° 0 mm 6 m/S 737 mmHg 39%
15:00 +27°C° 0 mm 5 m/S 737 mmHg 42%
16:00 +26°C° 0 mm 5 m/S 737 mmHg 45%
17:00 +26°C° 0 mm 4 m/S 737 mmHg 48%
18:00 +24°C° 0 mm 3 m/S 737 mmHg 55%
19:00 +21°C° 0 mm 3 m/S 737 mmHg 62%
20:00 +19°C° 0 mm 2 m/S 737 mmHg 68%
21:00 +18°C° 0 mm 2 m/S 737 mmHg 70%
22:00 +18°C° 0 mm 2 m/S 738 mmHg 71%
23:00 +17°C° 0 mm 2 m/S 738 mmHg 73%

1 August, Sonntag

Zeit Temperatur Niederschläge Wind Luftdruck Luftfeuchtigkeit
00:00 +17°C° 0 mm 2 m/S 738 mmHg 74%
01:00 +16°C° 0 mm 2 m/S 738 mmHg 76%
02:00 +16°C° 0 mm 2 m/S 738 mmHg 77%
03:00 +16°C° 0 mm 2 m/S 738 mmHg 79%
04:00 +17°C° 0 mm 2 m/S 738 mmHg 81%
05:00 +17°C° 0 mm 2 m/S 738 mmHg 82%
06:00 +17°C° 0.6 mm 2 m/S 738 mmHg 87%
07:00 +17°C° 0.6 mm 2 m/S 738 mmHg 92%
08:00 +17°C° 0.6 mm 2 m/S 737 mmHg 97%
09:00 +19°C° 0.1 mm 2 m/S 738 mmHg 90%
10:00 +21°C° 0.1 mm 3 m/S 738 mmHg 84%
11:00 +24°C° 0.1 mm 3 m/S 738 mmHg 77%
12:00 +25°C° 0.5 mm 3 m/S 737 mmHg 77%
13:00 +25°C° 0.5 mm 3 m/S 737 mmHg 78%
14:00 +26°C° 0.5 mm 3 m/S 737 mmHg 78%
15:00 +25°C° 0.9 mm 3 m/S 737 mmHg 80%
16:00 +25°C° 0.9 mm 3 m/S 737 mmHg 82%
17:00 +24°C° 0.9 mm 3 m/S 737 mmHg 85%
18:00 +23°C° 0.1 mm 2 m/S 737 mmHg 87%
19:00 +22°C° 0.1 mm 1 m/S 737 mmHg 90%
20:00 +21°C° 0.1 mm 1 m/S 738 mmHg 93%
21:00 +20°C° 0 mm 1 m/S 738 mmHg 93%
22:00 +19°C° 0 mm 1 m/S 738 mmHg 93%
23:00 +19°C° 0 mm 1 m/S 738 mmHg 94%

2 August, Montag

Zeit Temperatur Niederschläge Wind Luftdruck Luftfeuchtigkeit
00:00 +19°C° 0 mm 1 m/S 738 mmHg 94%
01:00 +18°C° 0 mm 1 m/S 738 mmHg 95%
02:00 +17°C° 0 mm 2 m/S 738 mmHg 95%
03:00 +17°C° 0 mm 2 m/S 738 mmHg 95%
04:00 +18°C° 0 mm 1 m/S 738 mmHg 94%
05:00 +18°C° 0 mm 1 m/S 737 mmHg 93%
06:00 +19°C° 0 mm 2 m/S 737 mmHg 86%
07:00 +21°C° 0 mm 2 m/S 737 mmHg 80%
08:00 +24°C° 0 mm 2 m/S 737 mmHg 73%
09:00 +25°C° 0 mm 3 m/S 737 mmHg 66%
10:00 +27°C° 0 mm 3 m/S 736 mmHg 59%
11:00 +28°C° 0 mm 4 m/S 736 mmHg 52%
12:00 +28°C° 0.3 mm 4 m/S 736 mmHg 57%
13:00 +27°C° 0.3 mm 4 m/S 735 mmHg 61%
14:00 +27°C° 0.3 mm 4 m/S 735 mmHg 66%
15:00 +26°C° 1.5 mm 3 m/S 734 mmHg 72%
16:00 +26°C° 1.5 mm 3 m/S 733 mmHg 79%
17:00 +25°C° 1.5 mm 3 m/S 732 mmHg 85%
18:00 +22°C° 3.1 mm 3 m/S 732 mmHg 89%
19:00 +21°C° 3.1 mm 3 m/S 733 mmHg 93%
20:00 +19°C° 3.1 mm 3 m/S 733 mmHg 97%
21:00 +19°C° 0.4 mm 3 m/S 733 mmHg 97%
22:00 +18°C° 0.4 mm 3 m/S 733 mmHg 98%
23:00 +18°C° 0.4 mm 4 m/S 734 mmHg 98%

3 August, Dienstag

Zeit Temperatur Niederschläge Wind Luftdruck Luftfeuchtigkeit
00:00 +17°C° 0.1 mm 4 m/S 734 mmHg 98%
01:00 +16°C° 0.1 mm 5 m/S 734 mmHg 97%
02:00 +15°C° 0.1 mm 5 m/S 735 mmHg 96%
03:00 +14°C° 0 mm 5 m/S 735 mmHg 95%
04:00 +14°C° 0 mm 4 m/S 736 mmHg 94%
05:00 +13°C° 0 mm 4 m/S 737 mmHg 93%
06:00 +14°C° 0 mm 4 m/S 737 mmHg 87%
07:00 +15°C° 0 mm 4 m/S 738 mmHg 82%
08:00 +17°C° 0 mm 4 m/S 738 mmHg 77%
09:00 +18°C° 0 mm 4 m/S 739 mmHg 71%
10:00 +20°C° 0 mm 4 m/S 739 mmHg 65%
11:00 +21°C° 0 mm 4 m/S 739 mmHg 58%
12:00 +21°C° 0.2 mm 4 m/S 739 mmHg 63%
13:00 +21°C° 0.2 mm 4 m/S 739 mmHg 68%
14:00 +20°C° 0.2 mm 4 m/S 739 mmHg 73%
15:00 +20°C° 0.3 mm 4 m/S 739 mmHg 75%
16:00 +20°C° 0.3 mm 4 m/S 739 mmHg 77%
17:00 +20°C° 0.3 mm 4 m/S 739 mmHg 79%
18:00 +18°C° 0.1 mm 3 m/S 739 mmHg 82%
19:00 +17°C° 0.1 mm 3 m/S 740 mmHg 86%
20:00 +15°C° 0.1 mm 2 m/S 740 mmHg 89%
21:00 +15°C° 0 mm 2 m/S 740 mmHg 89%
22:00 +14°C° 0 mm 2 m/S 740 mmHg 89%
23:00 +14°C° 0 mm 2 m/S 740 mmHg 89%
Mehr zeigen

Wir brauchen deine Erlaubnis

Meteoprog und unser Service Anbieter werden persönliche Daten aufbewahren, so wie Cookies, Geräte Bezeichnung oder ähnliche Technologien von deinem Gerät und Prozess, so wie Persönliche Daten Inhalte und Werbungen, genauso wie social Media und den Verkehr zu analysieren.

  • Aufbewahrung und/oder Zugang zu deiner Geräte Informationen.

    Cookies, Geräte Bezeichnung oder andere Informationen, können aufbewahrt oder Zugang zu deinem Gerät erhalten, für den Grund, der oben angegeben wird.

  • Personalisierte Werbung und Inhalte, Messungen, Einblick in das Publikum und Produkt Entwicklung.

    Werbungen und Inhalte können personalisiert werden, basierend auf ein Profil. Mehr Daten können besser personalisierte Werbungen und Inhalte hinzufügen. Werbung und Inhalte können gezeigt und gemessen werden. Einblicke über das Publikum, welche die Werbung gesehen haben und den Inhalt, können abgeleitet werden. So wie Daten können genutzt werden, um es zu verbessern oder die Benutzer Erfahrung zu verbessern das System und die Software.

Wenn du “Ich stimme zu” klickst, erlaubst du uns, die Cookies zu benutzen die Geräte Bezeichnung, den Web oder ähnliche Technologien zu benutzen. Deine Settings, können in deinem Gerät bei deinem Browser geändert werden.

Für den bestimmten Zweck, berechtigten Interessen beruhen darauf, mehr als auf den Inhalt. Du kannst mehr darüber in unseren Privaten und Cookie Politik lesen.